Home   Weather   Green Bay   Past weeks
Flag for USA

Past Weather in Green Bay, Wisconsin, USA — Yesterday and Last 2 Weeks

Now
52 °F

Sunny.


Feels Like: 49 °F
Forecast: 55 / 47 °F
Wind: 9 mph from Northeast

Location: Austin Straubel International Airport

Current Time: May 27, 2019 at 7:22:35 am

Latest Report: May 27, 2019 at 6:53 am


Visibility: 10 mi

Pressure: 30.09 "Hg

Humidity: 86%

Dew Point: 48 °F

Location of Green BayLocation

Past Weather in Green Bay — Graph

°F

Green Bay Temperature Yesterday

Maximum temperature yesterday: 73 °F (at 5:53 pm)
Minimum temperature yesterday: 53 °F (at 5:53 am)
Average temperature yesterday: 64 °F

High & Low Weather Summary for the Past Weeks

 TemperatureHumidityPressure
High83 °F (May 25, 1:53 pm)97% (May 25, 8:33 am)30.22 "Hg (May 25, 8:33 am)
Low39 °F (May 13, 5:53 am)27% (May 15, 3:53 pm)29.56 "Hg (May 19, 3:53 pm)
Average56 °F70%29.91 "Hg
* Reported May 12 6:53 am — May 27 6:20 am, Green Bay. Weather by CustomWeather, © 2019

Note: Actual official high and low records may vary slightly from our data, if they occured in-between our weather recording intervals... More about our weather records

Advertising

Green Bay Weather History for the Previous 24 Hours

Scroll right to see more
 ConditionsComfort  
Time TempWeatherWind HumidityBarometerVisibility
6:20 am
Mon, May 27
53 °FPassing clouds.13 mph86%30.09 "Hg10 mi
5:53 am53 °FSunny.10 mph80%30.08 "Hg10 mi
4:53 am53 °FClear.8 mph77%30.07 "Hg10 mi
3:53 am53 °FClear.7 mph83%30.09 "Hg10 mi
2:53 am55 °FClear.12 mph74%30.08 "Hg10 mi
1:53 am55 °FClear.8 mph90%30.08 "Hg10 mi
12:53 am55 °FClear.No wind80%30.10 "Hg10 mi
11:53 pm
Sun, May 26
57 °FClear.No wind81%30.09 "Hg10 mi
10:53 pm60 °FClear.6 mph69%30.07 "Hg10 mi
9:53 pm61 °FClear.6 mph67%30.08 "Hg10 mi
8:53 pm65 °FClear.7 mph56%30.06 "Hg10 mi
7:53 pm69 °FSunny.6 mph55%30.04 "Hg10 mi
6:53 pm72 °FSunny.5 mph46%30.04 "Hg10 mi
5:53 pm73 °FSunny.No wind43%30.05 "Hg10 mi
4:53 pm71 °FSunny.3 mph49%30.07 "Hg10 mi
3:53 pm72 °FScattered clouds.7 mph46%30.09 "Hg10 mi
2:53 pm72 °FOvercast.N/A49%30.09 "Hg10 mi
1:53 pm70 °FScattered clouds.6 mph51%30.09 "Hg10 mi
12:53 pm71 °FScattered clouds.No wind47%30.09 "Hg10 mi
11:53 am67 °FPartly sunny.5 mph55%30.09 "Hg10 mi
10:53 am67 °FPartly sunny.N/A55%30.08 "Hg10 mi
9:53 am65 °FScattered clouds.7 mph59%30.07 "Hg10 mi
8:53 am61 °FSunny.No wind72%30.07 "Hg10 mi
7:53 am59 °FSunny.No wind75%30.04 "Hg10 mi
Weather by CustomWeather, © 2019

See weather overview